Change the Weather History Date:

Sunday, October 7, 2012

  Actual Average Record
Temperature  
Mean Temperature 43 °F 40 °F  
Max Temperature 44 °F 45 °F 50 °F (1979)
Min Temperature 41 °F 36 °F 22 °F (1984)
Degree Days  
Heating Degree Days 22 25  
Month to date heating degree days 154 167  
Since 1 July heating degree days 2001 1810  
Cooling Degree Days 0    
Month to date cooling degree days 0  
Year to date cooling degree days  
Moisture  
Dew Point 40 °F    
Average Humidity 0    
Maximum Humidity 0    
Minimum Humidity 0    
Precipitation  
Precipitation 0.29 in 0.10 in 0.79 in (1954)
Month to date precipitation 2.21 0.69  
Year to date precipitation 20.60 16.11  
Snow  
Snow 0.00 in 0.00 in 0.40 in (1971)
Month to date snowfall 0.0 0.1  
Since 1 July snowfall 0.0 0.1  
Since 1 September snowfall 0.0 0.1  
Snow Depth 0.00 in    
Sea Level Pressure  
Sea Level Pressure 29.91 in    
Wind  
Wind Speed 26 mph (NE)    
Max Wind Speed 40 mph    
Max Gust Speed 51 mph    
Visibility 7 miles    
Events Rain    
T = Trace of Precipitation, MM = Missing Value Source: NWS Daily Summary

Daily Weather History Graph

Daily Weather History Graph

Search for Another Location

Airport or City:

Trip Planner

Search our weather history database for the weather conditions in past years. The results will help you decide how hot, cold, wet, or windy it might be!

Date:

Astronomy

Oct. 07, 2012 Rise Set
Actual Time 9:38 AM AKDT 8:36 PM AKDT
Civil Twilight 9:00 AM AKDT 9:15 PM AKDT
Nautical Twilight 8:16 AM AKDT 9:59 PM AKDT
Astronomical Twilight 7:30 AM AKDT 10:44 PM AKDT
Moon 12:12 AM AKDT (10/7) 5:14 PM AKDT (10/7)
Length of Visible Light 12h 14m
Length of Day
10h 58m
Waning Gibbous, 55% of the Moon is Illuminated
Oct 7
Waning Gibbous
Oct 7
Last Quarter
Oct 15
New
Oct 21
First Quarter
Oct 29
Full

Hourly Weather History & Observations

Time (AKDT) Temp. Windchill Dew Point Humidity Pressure Visibility Wind Dir Wind Speed Gust Speed Precip Events Conditions
12:12 AM 42.8 °F 35.1 °F 39.2 °F 87% 29.94 in 10.0 mi ENE 16.1 mph - N/A   Overcast
12:53 AM 41.0 °F 33.1 °F 39.0 °F 93% 29.94 in 10.0 mi NE 15.0 mph - N/A   Overcast
1:12 AM 41.0 °F 32.5 °F 39.2 °F 93% 29.94 in 10.0 mi ENE 17.3 mph - N/A   Overcast
1:53 AM 42.1 °F 34.9 °F 39.9 °F 92% 29.94 in 10.0 mi NE 13.8 mph - N/A   Overcast
2:24 AM 41.0 °F 33.1 °F 39.2 °F 93% 29.94 in 10.0 mi NE 15.0 mph - N/A   Overcast
2:53 AM 41.0 °F 33.1 °F 39.9 °F 96% 29.95 in 10.0 mi NE 15.0 mph - N/A   Overcast
3:11 AM 42.8 °F 35.8 °F 39.2 °F 87% 29.95 in 10.0 mi NE 13.8 mph 21.9 mph N/A   Overcast
3:20 AM 42.8 °F 35.1 °F 39.2 °F 87% 29.95 in 10.0 mi NE 16.1 mph - N/A   Overcast
3:41 AM 42.8 °F 35.1 °F 39.2 °F 87% 29.96 in 10.0 mi NE 16.1 mph - N/A   Overcast
3:53 AM 42.1 °F 34.5 °F 39.9 °F 92% 29.96 in 10.0 mi NE 15.0 mph 23.0 mph N/A   Overcast
4:04 AM 42.8 °F 35.8 °F 39.2 °F 87% 29.95 in 10.0 mi NE 13.8 mph - N/A   Overcast
4:40 AM 42.8 °F 34.8 °F 39.2 °F 87% 29.95 in 10.0 mi NE 17.3 mph - N/A   Overcast
4:53 AM 42.1 °F 34.2 °F 39.9 °F 92% 29.94 in 10.0 mi NE 16.1 mph 24.2 mph N/A   Overcast
5:08 AM 42.8 °F 34.5 °F 39.2 °F 87% 29.94 in 10.0 mi NE 18.4 mph 24.2 mph N/A   Overcast
5:20 AM 42.8 °F 34.3 °F 39.2 °F 87% 29.94 in 10.0 mi NE 19.6 mph 26.5 mph N/A   Overcast
5:53 AM 42.1 °F 33.6 °F 41.0 °F 96% 29.94 in 10.0 mi NE 18.4 mph - N/A   Overcast
6:53 AM 43.0 °F 34.2 °F 41.0 °F 93% 29.92 in 10.0 mi NE 20.7 mph 28.8 mph 0.00 in Rain Light Rain
7:35 AM 42.8 °F 34.0 °F 41.0 °F 93% 29.92 in 10.0 mi NE 20.7 mph 28.8 mph 0.00 in   Overcast
7:53 AM 43.0 °F 34.2 °F 41.0 °F 93% 29.93 in 10.0 mi NE 20.7 mph - 0.00 in   Overcast
8:15 AM 42.8 °F 34.5 °F 41.0 °F 93% 29.93 in 10.0 mi NE 18.4 mph 27.6 mph 0.00 in Rain Light Rain
8:36 AM 42.8 °F 34.3 °F 41.0 °F 93% 29.93 in 9.0 mi NE 19.6 mph 26.5 mph 0.00 in Rain Light Rain
8:53 AM 43.0 °F 34.2 °F 41.0 °F 93% 29.93 in 9.0 mi NE 20.7 mph - 0.00 in Rain Light Rain
9:26 AM 42.8 °F 33.8 °F 41.0 °F 93% 29.93 in 9.0 mi NE 21.9 mph 28.8 mph 0.00 in Rain Light Rain
9:53 AM 42.1 °F 33.3 °F 41.0 °F 96% 29.93 in 10.0 mi NE 19.6 mph 27.6 mph 0.01 in Rain Light Rain
10:53 AM 43.0 °F 34.0 °F 41.0 °F 93% 29.94 in 8.0 mi NE 21.9 mph - 0.00 in Rain Light Rain
11:53 AM 43.0 °F 33.5 °F 41.0 °F 93% 29.93 in 10.0 mi NNE 24.2 mph 34.5 mph 0.01 in   Overcast
12:18 PM 42.8 °F 32.7 °F 39.2 °F 87% 29.93 in 10.0 mi NNE 27.6 mph 36.8 mph N/A   Overcast
12:53 PM 44.1 °F 34.4 °F 39.9 °F 85% 29.93 in 10.0 mi NNE 27.6 mph 35.7 mph N/A   Overcast
1:53 PM 44.1 °F 34.0 °F 39.9 °F 85% 29.91 in 10.0 mi NE 29.9 mph 38.0 mph N/A   Overcast
2:48 PM 44.6 °F 34.2 °F 39.2 °F 81% 29.90 in 10.0 mi NE 33.4 mph 43.7 mph N/A   Overcast
2:53 PM 44.1 °F 33.7 °F 39.9 °F 85% 29.89 in 10.0 mi NE 32.2 mph 43.7 mph N/A   Overcast
3:12 PM 42.8 °F 31.9 °F 41.0 °F 93% 29.87 in 5.0 mi NE 32.2 mph 42.6 mph N/A   Overcast
3:53 PM 43.0 °F 32.4 °F 41.0 °F 93% 29.87 in 5.0 mi NNE 31.1 mph 43.7 mph 0.00 in Rain Light Rain
4:32 PM 42.8 °F 31.8 °F 39.2 °F 87% 29.86 in 6.0 mi NNE 33.4 mph 46.0 mph 0.04 in Rain Light Rain
4:53 PM 43.0 °F 32.4 °F 39.9 °F 89% 29.87 in 4.0 mi NNE 31.1 mph 44.9 mph 0.05 in Rain Light Rain
5:03 PM 42.8 °F 32.3 °F 39.2 °F 87% 29.88 in 3.0 mi NNE 29.9 mph 43.7 mph 0.00 in Rain Light Rain
5:13 PM 42.8 °F 32.5 °F 39.2 °F 87% 29.89 in 2.0 mi NNE 28.8 mph 41.4 mph 0.00 in Rain Light Rain
5:20 PM 42.8 °F 32.9 °F 39.2 °F 87% 29.88 in 1.5 mi NNE 26.5 mph 41.4 mph 0.01 in Rain Rain
5:30 PM 42.8 °F 32.1 °F 41.0 °F 93% 29.88 in 1.5 mi NNE 31.1 mph 41.4 mph 0.04 in Rain Rain
5:42 PM 42.8 °F 31.8 °F 41.0 °F 93% 29.87 in 2.0 mi NE 33.4 mph 44.9 mph 0.05 in Rain Rain
5:53 PM 42.1 °F 30.3 °F 41.0 °F 96% 29.86 in 2.0 mi NNE 36.8 mph 46.0 mph 0.07 in Rain Rain
6:14 PM 42.8 °F 31.9 °F 41.0 °F 93% 29.86 in 4.0 mi NE 32.2 mph 44.9 mph 0.03 in Rain Light Rain
6:53 PM 42.1 °F 30.4 °F 39.9 °F 92% 29.86 in 6.0 mi NNE 35.7 mph 46.0 mph 0.03 in Rain Light Rain
7:53 PM 42.1 °F 30.8 °F 39.9 °F 92% 29.87 in 4.0 mi NNE 33.4 mph 44.9 mph 0.01 in Rain Light Rain
8:07 PM 42.8 °F 32.1 °F 39.2 °F 87% 29.90 in 2.5 mi NNE 31.1 mph 49.5 mph 0.00 in Rain Light Rain
8:26 PM 42.8 °F 31.4 °F 39.2 °F 87% 29.88 in 1.5 mi NNE 35.7 mph 44.9 mph 0.03 in Rain Heavy Rain
8:41 PM 42.8 °F 32.1 °F 39.2 °F 87% 29.88 in 3.0 mi NNE 31.1 mph 48.3 mph 0.08 in Rain Light Rain
8:53 PM 42.1 °F 30.8 °F 39.9 °F 92% 29.88 in 4.0 mi NNE 33.4 mph 43.7 mph 0.10 in Rain Light Rain
9:53 PM 42.1 °F 31.3 °F 39.9 °F 92% 29.91 in 7.0 mi NNE 29.9 mph 42.6 mph 0.00 in Rain Light Rain
10:53 PM 42.1 °F 31.3 °F 39.9 °F 92% 29.92 in 4.0 mi NNE 29.9 mph 40.3 mph 0.00 in Rain Light Rain
11:53 PM 42.1 °F 31.1 °F 39.9 °F 92% 29.91 in 5.0 mi NE 31.1 mph 44.9 mph 0.01 in Rain Light Rain